www.pogodaiklimat.ru

Погода и климат >> Архив погоды >> Россия >> город Санкт-Петербург >> Санкт-Петербург


АРХИВ ПОГОДЫ в Санкт-Петербурге

Время (UTC), дата Ветер
(напр.,м/с)
 
Видим.   Явления Облачность Т
(С)
Тd
(С)
f
(%)
Тe
(С)
Тes
(С)
Комфортность P
(гПа)
Po
(гПа)
Тmin
(С)
Tmax
(С)
R
(мм)
R24
(мм)
S
(см)
06 22.04 СВ 2 2000 м ливневой дождь со снегом 10/10 200 м
[Cb calv]
+0.6 -0.2 94 -3 -3 холодно 988.3 987.5 +0.6 5 1
09 22.04 С 1 2000 м слабый ливневой снег 10/10 200 м
[Cb calv]
+1.3 +0.6 95 -1 -1 холодно 988.5 987.7
12 22.04 СВ 2 4000 м слабый дождь {ливн. осадки} 10/10 200 м
[Frnb Ns]
+2.2 +0.8 90 -1 -1 очень
холодно
989.3 988.5
15 22.04 С 3 10 км слабый дождь 10/10 300 м
[Sc diur, vesp]
+2.6 +0.4 85 -2 -2 очень
холодно
990.3 989.5 12
18 22.04 С 3 10 км {дождь} 10/10 700 м
[Sc]
+1.8 +0.2 89 -3 -3 очень
холодно
991.6 990.8 +2.7 7
21 22.04 С 1 4000 м слабый ливневой снег 10/10 300 м
[Cb calv]
+0.8 +0.2 96 -1 -1 прохладно 992.2 991.4
00 23.04 С 2 10 км {ливн. осадки} 10/10 600 м
[Sc]
+1.4 +0.4 93 -2 -2 прохладно 992.8 992.0
03 23.04 СЗ 1 1000 м ливневой снег 10/10 300 м
[Cb calv]
+0.3 -0.4 95 -2 -2 холодно 994.0 993.3 +0.3 7
06 23.04 С 1 4000 м слабый дождь {ливн. осадки} 10/10 300 м
[Frnb Ns]
+1.3 +0.7 96 -1 -1 холодно 996.3 995.5 +0.3 10 3
09 23.04 ЮЗ 2 10 км {ливн. осадки, дождь} 9/0
[Ac As]
+4.1 +2.1 87 +1 +5 холодно 998.8 998.1
12 23.04 СЗ 3 4000 м слабый дождь {ливн. осадки} 8/8 300 м
[Sc]
+4.3 +1.7 83 +1 +2 очень
холодно
1001.0 1000.3
15 23.04 СЗ 2 4000 м слабый дождь {ливн. осадки} 10/10 200 м
[Frnb Ns]
+2.2 +1.1 92 -1 -1 очень
холодно
1002.8 1002.1 8
18 23.04 З 1 10 км {ливн. осадки, дождь} 9/9 800 м
[Sc]
+2.8 +1.6 92 +1 +1 прохладно 1004.2 1003.5 +4.6 5
21 23.04 З 1 10 км 10/10 800 м
[Sc]
+2.5 +1.3 92 +1 +1 прохладно 1005.2 1004.4
00 24.04 З 1 10 км 10/10 360 м
[Sc]
+2.2 +0.8 90 0 0 прохладно 1005.7 1004.9
03 24.04 ЮЗ 1 10 км 10/10 500 м
[Sc]
+1.9 +0.4 90 0 0 прохладно 1005.9 1005.1 +1.8 0.4
06 24.04 ЮЗ 2 10 км слабая морось 10/10 270 м
[St]
+2.6 +0.9 89 -1 -1 холодно 1006.5 1005.7 +1.8
09 24.04 ЮЗ 2 10 км {морось} 10/8 300 м
[Sc Cs]
+3.7 +1.5 86 +1 +2 холодно 1007.6 1006.8
12 24.04 ЮЗ 3 10 км в посл. час дождь {морось} 9/6 300 м
[Sc Ac trans Ci fib]
+4.5 +1.3 80 +1 +3 очень
холодно
1008.0 1007.3
15 24.04 ЮЗ 3 10 км 3/1 600 м
[Sc Ci fib]
+5.6 -2.8 55 +3 +5 прохладно 1007.7 1006.9
18 24.04 З 1 10 км 3/0
[Ac trans Ci fib]
+2.8 -0.9 77 +1 +1 холодно 1008.8 1008.0 +5.8 0.0
21 24.04 штиль 0 10 км ясно +0.4 -1.4 88 -1 -1 холодно 1008.9 1008.2
00 25.04 штиль 0 10 км ясно -0.8 -1.5 95 -2 -2 холодно 1008.7 1007.9
03 25.04 штиль 0 10 км ясно -0.8 -1.3 96 -2 -2 холодно 1008.7 1007.9 -1.3
06 25.04 ЮВ 2 10 км 4/0
[Cs]
+5.2 -1.1 64 +3 +7 по сезону 1008.8 1008.0 -1.3
09 25.04 Ю 3 10 км 10/1
[Sc diur, vesp As trans Cs]
+7.9 -2.6 47 +6 +10 по сезону 1008.1 1007.4
12 25.04 ЮВ 3
{11}
10 км 10/3 300 м
[Sc As trans]
+8.2 -3.9 42 +6 +8 прохладно 1006.8 1006.1
15 25.04 ЮВ 2
{13}
10 км слабый дождь 10/10 300 м
[Frnb Ns]
+6.5 +1.3 69 +4 +4 прохладно 1005.7 1004.9
18 25.04 ЮВ 4
{12}
4000 м слабый дождь {ливн. осадки} 10/10 300 м
[Frnb Ns]
+5.0 +2.9 86 +1 +1 холодно 1003.3 1002.6 +8.5 3
21 25.04 ЮВ 3
{11}
4000 м слабый дождь 10/10 300 м
[Frnb Ns]
+6.4 +3.1 79 +3 +3 по сезону 999.4 998.6
00 26.04 ЮВ 3
{11}
4000 м дождь 10/10 300 м
[Frnb Ns]
+6.0 +4.0 87 +3 +3 по сезону 995.4 994.6
03 26.04 ЮЗ 4
{11}
4000 м слабый дождь 10/10 200 м
[Frnb Ns]
+2.6 +1.4 92 -2 -2 холодно 995.2 994.4 +2.6 7
06 26.04 ЮЗ 3
{10}
10 км в посл. час дождь 8/8 300 м
[Sc diur, vesp]
+2.7 +0.9 88 -1 -1 холодно 998.8 998.0 +2.1 5
09 26.04 ЮЗ 5
{10}
10 км {дождь} 9/9 300 м
[Sc diur, vesp]
+5.5 +0.2 69 +1 +2 холодно 999.5 998.8
12 26.04 Ю 4-10
{10}
10 км в посл. час дождь {ливн. осадки} 9/8 300 м
[Sc diur, vesp]
+6.4 -0.8 60 +3 +4 холодно 999.4 998.7
15 26.04 ЮЗ 4
{11}
10 км в посл. час ливневой дождь 5/4 300 м
[Sc diur, vesp Ci ing]
+6.2 +1.0 69 +3 +4 холодно 999.8 999.1 0.6
18 26.04 ЮЗ 5 10 км {ливн. осадки} 9/8 300 м
[Sc diur, vesp Ac trans Ci fib]
+3.7 +1.3 84 -1 -1 очень
холодно
1002.3 1001.6 +6.4 1
21 26.04 ЮЗ 5-11
{13}
10 км 5/4 300 м
[Sc Ac trans Ci fib]
+3.8 -0.3 75 -1 -1 холодно 1004.4 1003.7
00 27.04 ЮЗ 5
{11}
10 км 9/9 270 м
[Sc]
+2.8 -0.6 78 -2 -2 холодно 1006.2 1005.4
03 27.04 ЮЗ 4
{10}
10 км 3/3 300 м
[Sc]
+1.9 -1.1 80 -3 -3 очень
холодно
1007.1 1006.3 +1.9 1
06 27.04 ЮЗ 4 10 км 1/1 300 м
[Sc]
+4.0 -0.6 72 -0 +3 холодно 1008.6 1007.8 +1.9
09 27.04 ЮЗ 5
{10}
10 км 3/3 600 м
[Cu med, cong]
+7.2 -1.7 53 +4 +8 прохладно 1009.4 1008.7
12 27.04 ЮЗ 3 10 км в посл. час ливневой дождь 6/4 600 м
[Cu med, cong Ci ing]
+7.2 +0.6 63 +5 +9 холодно 1010.6 1009.8
15 27.04 СЗ 1 10 км в посл. час ливневой дождь 9/8 300 м
[Sc diur, vesp Ac trans Ci ing]
+4.8 +1.4 79 +4 +4 прохладно 1012.2 1011.4 0.6
18 27.04 ЮЗ 1 10 км {ливн. осадки} 6/4 700 м
[Sc Ac As]
+4.9 +1.1 76 +4 +4 прохладно 1013.8 1013.0 +7.5 0.6
21 27.04 З 2 10 км ясно +3.6 +0.6 81 +1 +1 прохладно 1015.2 1014.4
00 28.04 З 1 10 км ясно +2.4 -0.2 83 +1 +1 прохладно 1016.5 1015.7
03 28.04 ЮЗ 1 10 км ясно +2.2 -0.1 85 +1 +1 прохладно 1018.6 1017.8 +2.0
06 28.04 З 2 10 км ясно +4.8 +0.6 74 +2 +7 прохладно 1020.5 1019.8 +2.0
09 28.04 З 2 10 км 3/3 600 м
[Cu med, cong]
+8.5 -1.7 49 +7 +15 по сезону 1022.4 1021.6
12 28.04 ЮЗ 3 10 км 3/1 600 м
[Cu med, cong Ci fib]
+10.0 -6.3 31 +9 +15 по сезону 1023.1 1022.3
15 28.04 З 2 10 км 9/1 600 м
[Cu med, cong Cs]
+10.3 -6.5 30 +10 +12 по сезону 1023.1 1022.3
18 28.04 В 1 10 км 9/0
[Ac trans Ci fib]
+6.7 -2.4 52 +6 +6 по сезону 1023.9 1023.2 +11.1
21 28.04 СВ 1 10 км 9/0
[Ac trans Ci fib]
+5.0 -3.4 55 +4 +4 по сезону 1024.2 1023.4
00 29.04 СВ 1 10 км 9/0
[Ac trans Ci fib]
+3.8 -0.5 73 +3 +3 по сезону 1023.7 1022.9
03 29.04 СВ 2 10 км 9/0
[Ac und]
+3.2 -1.3 72 0 +1 холодно 1022.7 1021.9 +3.2

 

Местоположение метеостанции Санкт-Петербург (город Санкт-Петербург, Россия): широта 59.97 долгота 30.30 высота над уровнем моря 6 м.

В архиве по умолчанию представлена погода в Санкт-Петербурге за последнюю неделю. Архивные данные за месяц целиком и за предыдущие месяцы, начиная с января 2011 года, Вы можете получить, выбрав интересующий диапазон дат из раскрывающегося списка и нажав кнопку "Ввод!".

Внимание! Время в таблицах - всемирное. Для получения местного времени необходимо прибавить поправку, которая в Санкт-Петербурге равна 3 ч.

Смотрите также архив погоды в соседних городах и на ближайших метеорологических станциях:

Погода в Воейково (город Санкт-Петербург, Россия) (22 км)
Погода в Ломоносове (город Санкт-Петербург, Россия) (29 км)
Погода в Кронштадте (город Санкт-Петербург, Россия) (30 км)
Погода в Шлиссельбурге (Ленинградская область, Россия) (39 км)
Погода в Рощино (Ленинградская область, Россия) (48 км)
Погода в Шепелево (Ленинградская область, Россия) (58 км)
Погода в Сосново (Ленинградская область, Россия) (65 км)
Погода в Белогорке (Ленинградская область, Россия) (70 км)
Погода в Волосово (Ленинградская область, Россия) (75 км)
Погода в Озерках (Ленинградская область, Россия) (77 км)

Пояснения к столбцам:

Ветер - указаны скорость ветра в м/с - средняя за 10 мин, порывы в срок и между сроками (в фигурных скобках) и направление, откуда дует ветер: С - северный, СВ - северо-восточный, В - восточный, ЮВ - юго-восточный, Ю - южный, ЮЗ - юго-западный, З - западный, СЗ - северо-западный.
Видимость - горизонтальная дальность видимости в метрах или километрах. При видимости от 1 до 10 км при отсутствии осадков обычно наблюдается дымка, при ухудшении видимости до 1 км и менее - туман. В сухую погоду видимость может ухудшаться дымом, пылью или мглою.
Явления - указаны атмосферные явления, наблюдавшиеся в срок или в последний час перед сроком; фигурными скобками обозначены явления, наблюдавшиеся между сроками (за 1-3 часа до срока); квадратными скобками обозначены град или гололедные отложения с указанием их диаметра в мм.
Облачность - указаны через наклонную черту общая и нижняя облачность в баллах и высота нижней границы облаков в метрах; квадратными скобками обозначены формы облаков: Ci - перистые, Cs - перисто-слоистые, Cc - перисто-кучевые, Ac - высококучевые, As - высокослоистые, Sc - слоисто-кучевые, Ns - слоисто-дождевые, Cu - кучевые, Cb - кучево-дождевые. Подробнее классификацию облаков см. в Атласе облаков (PDF).
T - Температура воздуха - температура, измеренная на высоте 2 м над землей.
Td - Температура точки росы - температура, при понижении до которой содержащийся в воздухе водяной пар достигнет насыщения.
f - Относительная влажность воздуха - влажноcть воздуха, измеренная на высоте 2 м над землей.
Te - Эффективная температура - температура, которую ощущает одетый по сезону человек в тени. Характеристика душности погоды. При расчете учитывается влияние влажности воздуха и скорости ветра на теплоощущения человека.
Tes - Эффективная температура на солнце - температура, которую ощущает человек, с поправкой на солнечный нагрев. Характеристика знойности погоды. Зависит от высоты солнца над горизонтом, облачности и скорости ветра. Ночью, в пасмурную погоду, а также при ветре 12 м/с и более поправка равна нулю.
P - Атмосферное давление - приведенное к уровню моря атмосферное давление.
Po - Атмосферное давление - измеренное на уровне метеостанции атмосферное давление.
Tmin - Минимальная температура - минимум температуры воздуха на высоте 2 м над землей.
Tmax - Максимальная температура - максимум температуры воздуха на высоте 2 м над землей.
R - Количество осадков - Количество выпавших осадков за период времени, мм. При наведении курсора мыши на число - период времени, за который выпало указанное количество осадков.
R24 - Количество осадков - Количество выпавших осадков за 24 часа, мм.
S - Снежный покров - Высота снежного покрова, см. При наведении курсора мыши на число - состояние снежного покрова и степень покрытия местности в баллах.